This demonstration page uses our WeatherBlox Daily Observations layout. Learn more.

Left ArrowRight Arrow

34.74481, -87.66753

Hourly Observations for March 18, 2022

Temp ( °F °C ) Dew Point ( °F °C ) Humidity (%) Winds ( mph kmh ) Pressure ( in mb ) Visibility ( mi km ) Precip ( " mm )
12:53 am 00:53 Clear 56 13.3 49 9.4 77 77 ESE 5 7 29.88 1012 10 16 0.00 0.00
1:53 am 01:53 Clear 56 13.3 50 10 81 81 Calm 29.85 1011 10 16 0.00 0.00
2:53 am 02:53 Partly Cloudy 56 13.3 51 10.6 84 84 Calm 29.89 1012 10 16 0.00 0.00
3:53 am 03:53 Mostly Clear 57 13.9 52 11.1 83 83 ESE 3 6 29.88 1012 10 16 0.00 0.00
4:53 am 04:53 Clear 57 13.9 52 11.1 83 83 S 3 6 29.89 1012 10 16 0.00 0.00
5:53 am 05:53 Cloudy 57 13.9 52 11.1 83 83 Calm 29.87 1012 10 16 0.00 0.00
6:10 am 06:10 Cloudy with Thunderstorms 56 13.3 53 11.7 90 90 undefined N/A 29.92 1013 7 11 0.00 0.00
6:22 am 06:22 Cloudy with Heavy Rain 57 13.9 53 11.7 87 87 Calm 29.91 1013 3 4 0.04 1.02
6:45 am 06:45 Cloudy with Nearby Thunderstorms 56 13.3 54 12.2 93 93 SE 7 11 29.89 1012 2 3 0.19 4.83
6:53 am 06:53 Cloudy with Nearby Thunderstorms 56 13.3 54 12.2 93 93 SSE 12 19 29.88 1012 2 3 0.25 6.35
7:00 am 07:00 Cloudy with Heavy Rain 56 13.3 54 12.2 93 93 E 13 20 29.86 1011 3 4 0.05 1.27
7:13 am 07:13 Cloudy with Rain 56 13.3 54 12.2 93 93 ESE 12 19 29.82 1010 4 6 0.10 2.54
7:48 am 07:48 Cloudy with Light Rain 55 13 54 12 94 94 ESE 10 17 29.83 1010 5 8 0.22 5.59
7:53 am 07:53 Cloudy with Light Rain 56 13.3 52 11.1 87 87 ESE 10 17 29.82 1010 6 10 0.23 5.84
8:20 am 08:20 Cloudy with Thunderstorms 54 12.2 51 10.6 90 90 SE 5 7 29.83 1010 5 8 0.10 2.54
8:35 am 08:35 Cloudy with Light Rain 54 12.2 51 10.6 90 90 ESE 17 28 29.79 1009 7 11 0.11 2.79
8:53 am 08:53 Mostly Cloudy with Light Rain 55 12.8 52 11.1 90 90 ESE 13 20 29.75 1007 10 16 0.12 3.05
9:08 am 09:08 Mostly Cloudy 56 13.3 53 11.7 90 90 ESE 9 15 29.79 1009 10 16 0.00 0.00
9:53 am 09:53 Cloudy 57 13.9 53 11.7 87 87 SSE 9 15 29.81 1010 10 16 0.00 0.00
10:53 am 10:53 Cloudy 57 13.9 53 11.7 87 87 SE 9 15 29.81 1009 10 16 0.00 0.00
11:53 am 11:53 Cloudy 59 15 55 12.8 87 87 SSE 10 17 29.80 1009 10 16 0.00 0.00
12:53 pm 12:53 Cloudy 63 17.2 58 14.4 84 84 SSE 14 22 29.78 1008 10 16 0.00 0.00
1:27 pm 13:27 Cloudy 65 18.3 58 14.4 78 78 S 12 19 29.75 1007 10 16 0.00 0.00
1:53 pm 13:53 Cloudy 66 18.9 58 14.4 75 75 S 12 19 29.75 1008 10 16 0.00 0.00
2:53 pm 14:53 Cloudy 66 18.9 59 15 78 78 S 10 17 29.74 1007 10 16 0.00 0.00
3:53 pm 15:53 Mostly Cloudy 70 21.1 62 16.7 76 76 SSE 16 26 29.72 1006 10 16 0.00 0.00
4:09 pm 16:09 Partly Cloudy 69 20.6 60 15.6 73 73 S 13 20 29.72 1006 10 16 0.00 0.00
4:53 pm 16:53 Mostly Cloudy 70 21.1 61 16.1 73 73 S 8 13 29.71 1006 10 16 0.00 0.00
5:53 pm 17:53 Partly Cloudy 70 21.1 61 16.1 73 73 S 9 15 29.71 1006 10 16 0.00 0.00
6:53 pm 18:53 Mostly Cloudy 68 20 60 15.6 76 76 S 9 15 29.74 1007 10 16 0.00 0.00
7:53 pm 19:53 Clear 67 19.4 49 9.4 53 53 WSW 18 30 29.75 1008 10 16 0.00 0.00
8:53 pm 20:53 Clear 63 17.2 50 10 63 63 W 18 30 29.79 1009 10 16 0.00 0.00
9:53 pm 21:53 Clear 57 13.9 45 7.2 64 64 W 20 31 29.84 1010 10 16 0.00 0.00
10:53 pm 22:53 Clear 55 12.8 45 7.2 69 69 W 12 19 29.86 1011 10 16 0.00 0.00
11:53 pm 23:53 Mostly Clear 53 11.7 42 5.6 66 66 W 20 31 29.88 1012 10 16 0.00 0.00

Powered by AerisWeather